Location: Newark
(43.0000°N, 1.6781°W)
Time: 10:17:04
(UTC+00:00)

Explorer 7 - Pass Details

Date: 19 April 2021
Orbit: 484 x 677 km, 50.3° (Epoch: 07 May)

Event Time Altitude Azimuth Distance (km) Brightness Sun altitude
Rises 01:25:27 0° 300° (WNW) 2,839 - -32.8°
Reaches altitude 10° 01:27:42 10° 304° (WNW) 1,967 - -32.7°
Maximum altitude 01:32:12 61° 25° (NNE) 720 - -32.3°
Drops below altitude 10° 01:36:56 10° 106° (ESE) 2,064 - -31.9°
Sets 01:39:21 0° 110° (ESE) 2,993 - -31.7°
